Regional Weather Roundup
Issued by NWS Cleveland, OH

Home | Current Version | Previous Version | Text Only | Print | Product List | Glossary Off
Versions: 1 2 3 4 5 6 7 8 9 10 11 12 13 14 15 16 17 18 19 20 21 22 23 24 25 26 27 28 29 30 31 32 33 34 35 36 37 38 39 40 41 42 43 44 45 46 47 48 49 50

000
ASUS41 KCLE 251602
RWRCLE
OHIO REGIONAL WEATHER ROUNDUP
NATIONAL WEATHER SERVICE CLEVELAND, OH
1100 AM EST THU DEC 25 2014

NOTE: "FAIR" INDICATES FEW OR NO CLOUDS BELOW 12,000 FEET WITH NO
SIGNIFICANT WEATHER AND/OR OBSTRUCTIONS TO VISIBILITY.

OHZ001>008-015>018-024>027-034-035-043-044-251700-
   NORTHWEST OHIO

CITY           SKY/WX    TMP DP  RH WIND       PRES   REMARKS
DEFIANCE       CLOUDY    38  31  76 SW10G21   30.00R
FINDLAY        CLOUDY    39  33  79 SW17      29.99R
TOLEDO EXPRESS CLOUDY    38  32  79 W17       29.96R
TOLEDO EXEC    CLOUDY    40  32  73 SW16      29.97R
LIMA           CLOUDY    39  32  76 SW18      30.01R
$$

OHZ009>014-019>023-028>033-038-089-251700-
   NORTHEAST OHIO

CITY           SKY/WX    TMP DP  RH WIND       PRES   REMARKS
CLE-HOPKINS    PTSUNNY   41  32  70 W25       29.98R
CLE-LAKEFRONT  PTSUNNY   42  32  67 SW20      29.94R
CUY CO. ARPT   PTSUNNY   43  34  70 W14G25    29.94R
LORAIN-ELYRIA  CLOUDY    39  32  76 W21G26    29.97R
ASHTABULA      CLOUDY    39  32  76 W23G30    29.92R
AKRON-CANTON   CLOUDY    38  31  76 W18G26    29.97R
WOOSTER        CLOUDY    37  32  82 W14       29.99R
MANSFIELD      CLOUDY    36  33  89 SW14G20   29.99R
YOUNGSTOWN     CLOUDY    37  34  89 SW13      29.93R
$$

OHZ042-051>053-060>062-070>072-077>081-251700-
  SOUTHWEST OHIO

CITY           SKY/WX    TMP DP  RH WIND       PRES   REMARKS
CINC-COVINGTON CLOUDY    39  30  70 W8        30.12R
CINC-LUNKEN    CLOUDY    38  34  85 SW7       30.15R
HAMILTON       CLOUDY    40  32  73 SW8       30.13R
DAYTON         CLOUDY    38  32  79 SW14      30.08R
WRIGHT-PAT AFB CLOUDY    38  32  79 SW14      30.08R
DAYTON GENERAL MIX PCPN  37  32  82 SW12      30.09R
WILMINGTON     CLOUDY    38  31  76 W12       30.09R
$$

OHZ036-037-039>041-045>050-054>059-063>069-073>076-082>088-251700-
  CENTRAL AND SOUTHEAST OHIO

CITY           SKY/WX    TMP DP  RH WIND       PRES   REMARKS
COLUMBUS       LGT RAIN  37  32  82 W14       30.06R
OSU AIRPORT    CLOUDY    38  28  67 W15       30.06R
BOLTON FIELD   CLOUDY    37  30  75 SW12G18   30.07R
RICKENBACK AFB CLOUDY    38  31  76 W18       30.08R
NEWARK         CLOUDY    38  32  79 W16       30.05R
MARION         CLOUDY    38  31  76 SW13      30.02R
LANCASTER      CLOUDY    39  32  76 W16G22    30.08R
ZANESVILLE     CLOUDY    39  31  72 SW12      30.06R
NEW PHILLY     CLOUDY    40  31  70 W8        30.02R
$$


USA.gov is the U.S. government's official web portal to all federal, state and local government web resources and services.